Flag for China

Past Weather in 36°04'01"N, 120°22'55"E, China — Yesterday and Last 2 Weeks

Now
81 °F

Passing clouds.


Feels Like: 86 °F
Forecast: 80 / 77 °F
Wind: 6 mph from Southeast

Location: Qingdao Airport

Current Time: Aug 5, 2020 at 12:59:23 am

Latest Report: Aug 5, 2020 at 12:00 am


Visibility: N/A

Pressure: 29.71 "Hg

Humidity: 84%

Dew Point: 75 °F

Location of 36°04'01"N, 120°22'55"ELocation

Past Weather in 36°04'01"N, 120°22'55"E — Graph

°F

36°04'01"N, 120°22'55"E Temperature Yesterday

Maximum temperature yesterday: 84 °F (at 10:00 am)
Minimum temperature yesterday: 75 °F (at 4:00 am)
Average temperature yesterday: 79 °F

High & Low Weather Summary for the Past Weeks

 TemperatureHumidityPressure
High91 °F (Aug 1, 3:00 pm)100% (Jul 23, 7:00 am)29.92 "Hg (Jul 23, 7:00 am)
Low66 °F (Jul 24, 1:00 am)43% (Jul 25, 11:00 am)29.39 "Hg (Jul 23, 8:00 am)
Average78 °F80%29.73 "Hg
* Reported Jul 20 11:00 pm — Aug 4 11:00 pm, 36°04'01"N, 120°22'55"E. Weather by CustomWeather, © 2020

Note: Actual official high and low records may vary slightly from our data, if they occured in-between our weather recording intervals... More about our weather records

36°04'01"N, 120°22'55"E Weather History for the Previous 24 Hours

Scroll right to see more
 ConditionsComfort  
Time TempWeatherWind HumidityBarometerVisibility
11:00 pm
Tue, Aug 4
79 °FPassing clouds.8 mph89%29.71 "HgN/A
10:00 pm79 °FPassing clouds.10 mph89%29.74 "HgN/A
9:00 pm79 °FPassing clouds.10 mph94%29.74 "HgN/A
8:00 pm79 °FPassing clouds.8 mph94%29.71 "HgN/A
7:00 pm81 °FPassing clouds.10 mph89%29.71 "HgN/A
6:00 pm81 °FPartly sunny.13 mph89%29.68 "HgN/A
5:00 pm84 °FPartly sunny.10 mph84%29.68 "HgN/A
4:00 pm84 °FPartly sunny.13 mph79%29.71 "HgN/A
3:00 pm84 °FPartly sunny.13 mph79%29.68 "HgN/A
2:00 pm82 °FPartly sunny.10 mph89%29.68 "HgN/A
1:00 pm82 °FPartly sunny.10 mph89%29.71 "HgN/A
12:00 pm82 °FScattered clouds.13 mph89%29.71 "HgN/A
11:00 am81 °FScattered clouds.20 mph89%29.65 "HgN/A
10:00 am84 °FScattered clouds.13 mph70%29.65 "HgN/A
9:00 am75 °FLight rain. Partly sunny.6 mph89%29.71 "HgN/A
8:00 am75 °FRain showers. Partly sunny.8 mph89%29.77 "HgN/A
7:00 am75 °FRain showers. Partly sunny.8 mph94%29.74 "HgN/A
6:00 am75 °FThunderstorms. Partly sunny.8 mph94%29.74 "HgN/A
5:00 am77 °FThunderstorms. Passing clouds.10 mph94%29.71 "HgN/A
4:00 am75 °FThunderstorms. Partly cloudy.10 mph100%29.71 "Hg4 mi
3:00 am79 °FSprinkles. Passing clouds.8 mph89%29.68 "HgN/A
2:00 am79 °FSprinkles. Passing clouds.3 mph89%29.65 "HgN/A
1:00 am79 °FPassing clouds.8 mph84%29.65 "HgN/A
12:00 am77 °FClear.6 mph89%29.65 "Hg10 mi
Weather by CustomWeather, © 2020

See weather overview